| time (UTC) | temp F | wind direction | speed MPH | gust MPH | rain 1hr in | rain 24hr in | rain mn in | humidity % | barometer mb |
| 20260505211258 | 57 | 192 | 8.0 | 22.0 | 0.00 | 0.00 | 0.00 | 78 | 1003.7 |
| 20260505210752 | 58 | 202 | 9.0 | 24.0 | 0.00 | 0.00 | 0.00 | 77 | 1003.8 |
| 20260505210245 | 58 | 175 | 8.0 | 24.0 | 0.00 | 0.00 | 0.00 | 77 | 1003.7 |
| 20260505205740 | 58 | 223 | 8.0 | 20.0 | 0.00 | 0.00 | 0.00 | 77 | 1003.6 |
| 20260505205455 | 59 | 192 | 8.0 | 20.0 | 0.00 | 0.00 | 0.00 | 76 | 1003.5 |
| 20260505204727 | 59 | 176 | 7.0 | 18.0 | 0.00 | 0.00 | 0.00 | 75 | 1003.6 |
| 20260505204222 | 60 | 201 | 6.0 | 18.0 | 0.00 | 0.00 | 0.00 | 75 | 1003.8 |
| 20260505203715 | 60 | 219 | 6.0 | 17.0 | 0.00 | 0.00 | 0.00 | 75 | 1003.8 |
| 20260505203209 | 60 | 208 | 6.0 | 17.0 | 0.00 | 0.00 | 0.00 | 74 | 1003.7 |
| 20260505202703 | 60 | 245 | 6.0 | 16.0 | 0.00 | 0.00 | 0.00 | 75 | 1003.9 |
| 20260505202158 | 60 | 235 | 5.0 | 17.0 | 0.00 | 0.00 | 0.00 | 76 | 1003.8 |
| 20260505201652 | 60 | 191 | 6.0 | 17.0 | 0.00 | 0.00 | 0.00 | 76 | 1003.7 |
| 20260505201145 | 60 | 250 | 7.0 | 16.0 | 0.00 | 0.00 | 0.00 | 75 | 1003.9 |
| 20260505200903 | 60 | 274 | 7.0 | 20.0 | 0.00 | 0.00 | 0.00 | 74 | 1004.0 |
| 20260505200134 | 60 | 194 | 6.0 | 27.0 | 0.00 | 0.00 | 0.00 | 74 | 1003.9 |
| 20260505195627 | 60 | 200 | 7.0 | 27.0 | 0.00 | 0.00 | 0.00 | 74 | 1004.0 |
| 20260505195349 | 60 | 163 | 6.0 | 16.0 | 0.00 | 0.00 | 0.00 | 75 | 1004.0 |
| 20260505194617 | 60 | 177 | 6.0 | 13.0 | 0.00 | 0.00 | 0.00 | 76 | 1004.2 |
| 20260505194109 | 59 | 192 | 6.0 | 16.0 | 0.00 | 0.00 | 0.00 | 77 | 1004.3 |
| 20260505193605 | 59 | 205 | 8.0 | 16.0 | 0.00 | 0.00 | 0.00 | 77 | 1004.4 |
| 20260505193058 | 59 | 267 | 7.0 | 16.0 | 0.00 | 0.00 | 0.00 | 78 | 1004.5 |
| 20260505192551 | 58 | 266 | 6.0 | 15.0 | 0.00 | 0.00 | 0.00 | 78 | 1004.5 |
| 20260505192046 | 58 | 201 | 6.0 | 20.0 | 0.00 | 0.00 | 0.00 | 78 | 1004.6 |
| 20260505191541 | 58 | 188 | 6.0 | 17.0 | 0.00 | 0.00 | 0.00 | 78 | 1004.8 |
| 20260505191033 | 59 | 178 | 6.0 | 17.0 | 0.00 | 0.00 | 0.00 | 77 | 1004.9 |
| 20260505190746 | 59 | 265 | 7.0 | 15.0 | 0.00 | 0.00 | 0.00 | 77 | 1005.0 |
| 20260505190025 | 59 | 247 | 9.0 | 18.0 | 0.00 | 0.00 | 0.00 | 78 | 1005.1 |
| 20260505185526 | 59 | 248 | 9.0 | 20.0 | 0.00 | 0.00 | 0.00 | 78 | 1005.1 |
| 20260505185246 | 59 | 196 | 9.0 | 23.0 | 0.00 | 0.00 | 0.00 | 78 | 1005.2 |
| 20260505184525 | 59 | 184 | 10.0 | 23.0 | 0.00 | 0.00 | 0.00 | 76 | 1005.3 |
| 20260505184512 | 60 | 196 | 9.0 | 20.0 | 0.00 | 0.00 | 0.00 | 77 | 1005.2 |
| 20260505183525 | 60 | 160 | 8.0 | 19.0 | 0.00 | 0.00 | 0.00 | 77 | 1005.2 |
| 20260505183026 | 59 | 157 | 9.0 | 20.0 | 0.00 | 0.00 | 0.00 | 78 | 1005.2 |
| 20260505182746 | 58 | 169 | 9.0 | 20.0 | 0.00 | 0.00 | 0.00 | 78 | 1005.3 |
| 20260505182027 | 59 | 190 | 8.0 | 18.0 | 0.00 | 0.00 | 0.00 | 77 | 1005.3 |
| 20260505181527 | 58 | 178 | 10.0 | 21.0 | 0.00 | 0.00 | 0.00 | 78 | 1005.2 |
| 20260505181026 | 58 | 184 | 11.0 | 21.0 | 0.00 | 0.00 | 0.00 | 79 | 1005.2 |
| 20260505180526 | 58 | 140 | 11.0 | 21.0 | 0.00 | 0.00 | 0.00 | 80 | 1005.3 |
| 20260505180025 | 57 | 180 | 10.0 | 24.0 | 0.00 | 0.00 | 0.00 | 80 | 1005.2 |
| 20260505175525 | 57 | 223 | 11.0 | 25.0 | 0.00 | 0.00 | 0.00 | 79 | 1005.4 |
| 20260505175026 | 58 | 186 | 10.0 | 25.0 | 0.00 | 0.00 | 0.00 | 77 | 1005.5 |
| 20260505174526 | 59 | 182 | 9.0 | 20.0 | 0.00 | 0.00 | 0.00 | 76 | 1005.6 |
| 20260505174025 | 60 | 171 | 8.0 | 20.0 | 0.00 | 0.00 | 0.00 | 77 | 1005.6 |
| 20260505173519 | 59 | 202 | 8.0 | 18.0 | 0.00 | 0.00 | 0.00 | 79 | 1005.7 |
| 20260505173451 | 58 | 186 | 9.0 | 20.0 | 0.00 | 0.00 | 0.00 | 79 | 1005.7 |
| 20260505172508 | 58 | 202 | 9.0 | 26.0 | 0.00 | 0.00 | 0.00 | 78 | 1005.8 |
| 20260505172001 | 59 | 179 | 8.0 | 26.0 | 0.00 | 0.00 | 0.00 | 75 | 1006.0 |
| 20260505171723 | 60 | 157 | 8.0 | 19.0 | 0.00 | 0.00 | 0.00 | 75 | 1006.0 |
| 20260505170950 | 60 | 192 | 8.0 | 19.0 | 0.00 | 0.00 | 0.00 | 77 | 1006.3 |
| 20260505170443 | 60 | 186 | 8.0 | 19.0 | 0.00 | 0.00 | 0.00 | 76 | 1006.6 |
| 20260505165938 | 60 | 186 | 6.0 | 19.0 | 0.00 | 0.00 | 0.00 | 75 | 1006.5 |
| 20260505165431 | 60 | 215 | 7.0 | 17.0 | 0.00 | 0.00 | 0.00 | 77 | 1006.6 |
| 20260505165146 | 59 | 175 | 7.0 | 17.0 | 0.00 | 0.00 | 0.00 | 78 | 1006.5 |
| 20260505164419 | 58 | 182 | 7.0 | 14.0 | 0.00 | 0.00 | 0.00 | 78 | 1006.6 |
| 20260505163914 | 58 | 178 | 7.0 | 14.0 | 0.00 | 0.00 | 0.00 | 78 | 1006.6 |
| 20260505163407 | 58 | 184 | 8.0 | 21.0 | 0.00 | 0.00 | 0.00 | 79 | 1006.6 |
| 20260505162902 | 58 | 200 | 7.0 | 19.0 | 0.00 | 0.00 | 0.00 | 78 | 1006.8 |
| 20260505162356 | 58 | 227 | 6.0 | 15.0 | 0.00 | 0.00 | 0.00 | 78 | 1006.9 |
| 20260505162109 | 58 | 150 | 6.0 | 15.0 | 0.00 | 0.00 | 0.00 | 78 | 1007.1 |
| 20260505161343 | 58 | 203 | 6.0 | 16.0 | 0.00 | 0.00 | 0.00 | 80 | 1007.2 |
| 20260505161104 | 57 | 144 | 8.0 | 16.0 | 0.00 | 0.00 | 0.00 | 80 | 1007.2 |
| 20260505160335 | 57 | 190 | 9.0 | 23.0 | 0.00 | 0.00 | 0.00 | 79 | 1007.4 |
| 20260505153016 | 58 | 182 | 7.0 | 14.0 | 0.00 | 0.00 | 0.00 | 80 | 1007.7 |
| 20260505152735 | 58 | 172 | 5.0 | 17.0 | 0.00 | 0.00 | 0.00 | 79 | 1007.8 |
| 20260505152237 | 58 | 206 | 4.0 | 17.0 | 0.00 | 0.00 | 0.00 | 79 | 1007.9 |
| 20260505151517 | 57 | 142 | 5.0 | 15.0 | 0.00 | 0.00 | 0.00 | 80 | 1007.7 |
| 20260505151015 | 56 | 208 | 5.0 | 15.0 | 0.00 | 0.00 | 0.00 | 81 | 1007.9 |
| 20260505150515 | 56 | 194 | 5.0 | 16.0 | 0.00 | 0.00 | 0.00 | 82 | 1007.8 |
| 20260505140505 | 55 | 157 | 5.0 | 13.0 | 0.00 | 0.00 | 0.00 | 82 | 1007.5 |
| 20260505140226 | 55 | 186 | 6.0 | 13.0 | 0.00 | 0.00 | 0.00 | 83 | 1007.5 |
| 20260505124937 | 53 | 182 | 7.0 | 16.0 | 0.00 | 0.00 | 0.00 | 84 | 1007.5 |
| 20260505124438 | 53 | 186 | 7.0 | 13.0 | 0.00 | 0.00 | 0.00 | 84 | 1007.5 |
| 20260505123937 | 53 | 211 | 6.0 | 15.0 | 0.00 | 0.00 | 0.00 | 84 | 1007.5 |
| 20260505123439 | 53 | 161 | 6.0 | 17.0 | 0.00 | 0.00 | 0.00 | 84 | 1007.4 |
| 20260505122937 | 53 | 190 | 5.0 | 17.0 | 0.00 | 0.00 | 0.00 | 84 | 1007.6 |
| 20260505122439 | 53 | 245 | 5.0 | 16.0 | 0.00 | 0.00 | 0.00 | 84 | 1007.7 |
| 20260505121939 | 53 | 226 | 5.0 | 16.0 | 0.00 | 0.00 | 0.00 | 84 | 1007.6 |
| 20260505121439 | 53 | 217 | 5.0 | 11.0 | 0.00 | 0.00 | 0.00 | 85 | 1007.5 |
| 20260505121200 | 52 | 226 | 6.0 | 15.0 | 0.00 | 0.00 | 0.00 | 85 | 1007.6 |
| 20260505120701 | 52 | 206 | 6.0 | 15.0 | 0.00 | 0.00 | 0.00 | 85 | 1007.7 |
| 20260505115935 | 52 | 180 | 7.0 | 15.0 | 0.00 | 0.00 | 0.00 | 85 | 1007.8 |
| 20260505115435 | 52 | 170 | 6.0 | 15.0 | 0.00 | 0.00 | 0.00 | 85 | 1007.9 |
| 20260505115153 | 52 | 194 | 6.0 | 17.0 | 0.00 | 0.00 | 0.00 | 85 | 1007.8 |
| 20260505114433 | 52 | 214 | 6.0 | 17.0 | 0.00 | 0.00 | 0.00 | 85 | 1008.0 |
| 20260505113933 | 52 | 212 | 5.0 | 16.0 | 0.00 | 0.00 | 0.00 | 85 | 1008.0 |
| 20260505113434 | 52 | 165 | 6.0 | 14.0 | 0.00 | 0.00 | 0.00 | 85 | 1008.0 |
| 20260505113157 | 51 | 180 | 7.0 | 14.0 | 0.00 | 0.00 | 0.00 | 85 | 1008.0 |
| 20260505112434 | 51 | 164 | 7.0 | 14.0 | 0.00 | 0.00 | 0.00 | 85 | 1008.0 |
| 20260505111931 | 51 | 223 | 6.0 | 14.0 | 0.00 | 0.00 | 0.00 | 86 | 1008.0 |
| 20260505111431 | 51 | 162 | 6.0 | 14.0 | 0.00 | 0.00 | 0.00 | 86 | 1007.9 |
| 20260505110930 | 51 | 171 | 6.0 | 14.0 | 0.00 | 0.00 | 0.00 | 86 | 1007.9 |
| 20260505110432 | 51 | 192 | 5.0 | 15.0 | 0.00 | 0.00 | 0.00 | 86 | 1007.8 |
| 20260505101932 | 50 | 245 | 4.0 | 12.0 | 0.00 | 0.00 | 0.00 | 86 | 1007.9 |
| 20260505101434 | 50 | 194 | 4.0 | 12.0 | 0.00 | 0.00 | 0.00 | 86 | 1007.8 |
| 20260505100931 | 50 | 200 | 3.0 | 11.0 | 0.00 | 0.00 | 0.00 | 86 | 1007.8 |
| 20260505100432 | 50 | 193 | 4.0 | 11.0 | 0.00 | 0.00 | 0.00 | 86 | 1007.8 |
| 20260505095931 | 50 | 159 | 4.0 | 10.0 | 0.00 | 0.00 | 0.00 | 86 | 1007.8 |
| 20260505095431 | 50 | 198 | 4.0 | 10.0 | 0.00 | 0.00 | 0.00 | 86 | 1007.8 |
| 20260505094931 | 50 | 248 | 4.0 | 14.0 | 0.00 | 0.00 | 0.00 | 86 | 1007.8 |
| 20260505094431 | 50 | 219 | 3.0 | 14.0 | 0.00 | 0.00 | 0.00 | 86 | 1007.7 |
| 20260505093931 | 50 | 236 | 4.0 | 10.0 | 0.00 | 0.00 | 0.00 | 86 | 1007.7 |
| 20260505093432 | 50 | 272 | 4.0 | 10.0 | 0.00 | 0.00 | 0.00 | 86 | 1007.7 |
| 20260505092925 | 50 | 216 | 3.0 | 9.0 | 0.00 | 0.00 | 0.00 | 86 | 1007.7 |
| 20260505092421 | 49 | 175 | 3.0 | 7.0 | 0.00 | 0.00 | 0.00 | 87 | 1007.7 |
| 20260505091921 | 49 | 227 | 3.0 | 8.0 | 0.00 | 0.00 | 0.00 | 87 | 1007.8 |
| 20260505091423 | 49 | 211 | 2.0 | 8.0 | 0.00 | 0.00 | 0.00 | 86 | 1007.8 |
| 20260505090921 | 49 | 203 | 2.0 | 9.0 | 0.00 | 0.00 | 0.00 | 86 | 1007.8 |
| 20260505090421 | 50 | 218 | 2.0 | 9.0 | 0.00 | 0.00 | 0.00 | 86 | 1007.9 |
| 20260505085919 | 50 | 233 | 1.0 | 6.0 | 0.00 | 0.00 | 0.00 | 85 | 1007.9 |
| 20260505085419 | 50 | 203 | 3.0 | 9.0 | 0.00 | 0.00 | 0.00 | 85 | 1008.0 |
| 20260505084919 | 50 | 227 | 4.0 | 9.0 | 0.00 | 0.00 | 0.00 | 84 | 1008.1 |
| 20260505084636 | 50 | 215 | 3.0 | 10.0 | 0.00 | 0.00 | 0.00 | 84 | 1008.1 |
| 20260505083919 | 50 | 236 | 3.0 | 10.0 | 0.00 | 0.00 | 0.00 | 84 | 1008.0 |
| 20260505083418 | 50 | 197 | 3.0 | 8.0 | 0.00 | 0.00 | 0.00 | 85 | 1008.1 |
| 20260505082917 | 50 | 224 | 3.0 | 8.0 | 0.00 | 0.00 | 0.00 | 85 | 1008.1 |
| 20260505082417 | 50 | 202 | 3.0 | 8.0 | 0.00 | 0.00 | 0.00 | 85 | 1008.1 |
| 20260505082141 | 50 | 219 | 2.0 | 8.0 | 0.00 | 0.00 | 0.00 | 85 | 1008.1 |
| 20260505081416 | 50 | 171 | 3.0 | 8.0 | 0.00 | 0.00 | 0.00 | 85 | 1008.1 |
| 20260505080916 | 50 | 213 | 3.0 | 8.0 | 0.00 | 0.00 | 0.00 | 84 | 1008.1 |
| 20260505080416 | 50 | 184 | 2.0 | 8.0 | 0.00 | 0.00 | 0.00 | 84 | 1008.1 |
| 20260505075914 | 50 | 186 | 2.0 | 8.0 | 0.00 | 0.00 | 0.00 | 84 | 1008.1 |
| 20260505075408 | 50 | 222 | 2.0 | 8.0 | 0.00 | 0.00 | 0.00 | 84 | 1008.1 |
| 20260505074905 | 50 | 215 | 2.0 | 12.0 | 0.00 | 0.00 | 0.00 | 84 | 1008.2 |
| 20260505074627 | 50 | 167 | 3.0 | 12.0 | 0.00 | 0.00 | 0.00 | 84 | 1008.2 |
| 20260505074128 | 50 | 213 | 3.0 | 11.0 | 0.00 | 0.00 | 0.00 | 85 | 1008.2 |
| 20260505073405 | 50 | 205 | 3.0 | 11.0 | 0.00 | 0.00 | 0.00 | 84 | 1008.2 |
| 20260505072905 | 50 | 200 | 3.0 | 9.0 | 0.00 | 0.00 | 0.00 | 83 | 1008.1 |
| 20260505072405 | 51 | 227 | 2.0 | 9.0 | 0.00 | 0.00 | 0.00 | 83 | 1008.1 |
| 20260505071905 | 51 | 215 | 2.0 | 7.0 | 0.00 | 0.00 | 0.00 | 83 | 1008.1 |
| 20260505071405 | 51 | 273 | 2.0 | 10.0 | 0.00 | 0.00 | 0.00 | 82 | 1008.1 |
| 20260505071345 | 51 | 221 | 3.0 | 11.0 | 0.00 | 0.00 | 0.00 | 82 | 1008.1 |
| 20260505070405 | 51 | 213 | 3.0 | 11.0 | 0.00 | 0.00 | 0.00 | 82 | 1008.0 |
| 20260505070127 | 51 | 229 | 3.0 | 11.0 | 0.00 | 0.00 | 0.00 | 82 | 1008.0 |
| 20260505065404 | 51 | 244 | 4.0 | 11.0 | 0.00 | 0.00 | 0.00 | 82 | 1008.0 |
| 20260505064905 | 51 | 212 | 4.0 | 10.0 | 0.00 | 0.00 | 0.00 | 81 | 1008.0 |
| 20260505064404 | 51 | 245 | 3.0 | 10.0 | 0.00 | 0.00 | 0.00 | 82 | 1008.0 |
| 20260505064127 | 51 | 223 | 3.0 | 11.0 | 0.00 | 0.00 | 0.00 | 81 | 1007.9 |
| 20260505063405 | 51 | 228 | 3.0 | 11.0 | 0.00 | 0.00 | 0.00 | 81 | 1007.9 |
| 20260505062906 | 51 | 213 | 4.0 | 11.0 | 0.00 | 0.00 | 0.00 | 80 | 1007.9 |
| 20260505062401 | 51 | 208 | 4.0 | 13.0 | 0.00 | 0.00 | 0.00 | 80 | 1007.9 |
| 20260505061855 | 52 | 192 | 4.0 | 13.0 | 0.00 | 0.00 | 0.00 | 79 | 1007.9 |
| 20260505061347 | 52 | 184 | 4.0 | 12.0 | 0.00 | 0.00 | 0.00 | 79 | 1007.9 |
| 20260505061108 | 52 | 230 | 4.0 | 12.0 | 0.00 | 0.00 | 0.00 | 79 | 1007.9 |
| 20260505060334 | 52 | 227 | 4.0 | 11.0 | 0.00 | 0.00 | 0.00 | 79 | 1008.0 |
| 20260505055828 | 52 | 189 | 3.0 | 9.0 | 0.00 | 0.00 | 0.00 | 79 | 1008.0 |
| 20260505055321 | 52 | 223 | 3.0 | 8.0 | 0.00 | 0.00 | 0.00 | 79 | 1007.9 |
| 20260505054815 | 52 | 199 | 3.0 | 9.0 | 0.00 | 0.00 | 0.00 | 79 | 1007.9 |
| 20260505054309 | 52 | 209 | 2.0 | 9.0 | 0.00 | 0.00 | 0.00 | 79 | 1008.0 |
| 20260505054028 | 52 | 243 | 3.0 | 11.0 | 0.00 | 0.00 | 0.00 | 78 | 1008.0 |
| 20260505053259 | 53 | 205 | 2.0 | 11.0 | 0.00 | 0.00 | 0.00 | 77 | 1008.0 |
| 20260505052751 | 53 | 195 | 2.0 | 8.0 | 0.00 | 0.00 | 0.00 | 76 | 1008.0 |
| 20260505052245 | 53 | 170 | 3.0 | 10.0 | 0.00 | 0.00 | 0.00 | 76 | 1008.0 |
| 20260505051739 | 53 | 234 | 3.0 | 10.0 | 0.00 | 0.00 | 0.00 | 76 | 1008.0 |
| 20260505051233 | 53 | 201 | 3.0 | 7.0 | 0.00 | 0.00 | 0.00 | 76 | 1007.9 |
| 20260505050727 | 53 | 195 | 4.0 | 11.0 | 0.00 | 0.00 | 0.00 | 75 | 1008.0 |
| 20260505050226 | 54 | 188 | 4.0 | 11.0 | 0.00 | 0.00 | 0.00 | 73 | 1007.9 |
| 20260505041628 | 54 | 204 | 3.0 | 8.0 | 0.00 | 0.00 | 0.00 | 73 | 1007.5 |
| 20260505041120 | 54 | 238 | 2.0 | 8.0 | 0.00 | 0.00 | 0.00 | 75 | 1007.5 |
| 20260505040842 | 53 | 198 | 3.0 | 8.0 | 0.00 | 0.00 | 0.00 | 76 | 1007.5 |
| 20260505040111 | 54 | 167 | 3.0 | 8.0 | 0.00 | 0.00 | 0.00 | 75 | 1007.5 |
| 20260505035611 | 54 | 204 | 2.0 | 9.0 | 0.00 | 0.00 | 0.00 | 75 | 1007.4 |
| 20260505035113 | 54 | 194 | 2.0 | 9.0 | 0.00 | 0.00 | 0.00 | 74 | 1007.4 |
| 20260505034610 | 55 | 183 | 2.0 | 6.0 | 0.00 | 0.00 | 0.00 | 73 | 1007.4 |
| 20260505034110 | 55 | 182 | 3.0 | 10.0 | 0.00 | 0.00 | 0.00 | 72 | 1007.4 |
| 20260505033612 | 55 | 209 | 4.0 | 15.0 | 0.00 | 0.00 | 0.00 | 71 | 1007.3 |
| 20260505033111 | 56 | 198 | 3.0 | 15.0 | 0.00 | 0.00 | 0.00 | 69 | 1007.4 |
| 20260505032612 | 57 | 226 | 2.0 | 7.0 | 0.00 | 0.00 | 0.00 | 68 | 1007.2 |
| 20260505032112 | 57 | 239 | 3.0 | 10.0 | 0.00 | 0.00 | 0.00 | 67 | 1007.2 |
| 20260505031611 | 58 | 238 | 3.0 | 14.0 | 0.00 | 0.00 | 0.00 | 65 | 1007.1 |
| 20260505031111 | 58 | 215 | 4.0 | 14.0 | 0.00 | 0.00 | 0.00 | 65 | 1007.2 |
| 20260505030831 | 58 | 221 | 5.0 | 12.0 | 0.00 | 0.00 | 0.00 | 65 | 1007.2 |
| 20260505030109 | 58 | 252 | 6.0 | 13.0 | 0.00 | 0.00 | 0.00 | 66 | 1007.2 |
| 20260505025832 | 57 | 257 | 5.0 | 13.0 | 0.00 | 0.00 | 0.00 | 66 | 1007.3 |
| 20260505025110 | 57 | 239 | 4.0 | 15.0 | 0.00 | 0.00 | 0.00 | 67 | 1007.4 |
| 20260505024608 | 57 | 246 | 5.0 | 15.0 | 0.00 | 0.00 | 0.00 | 68 | 1007.3 |
| 20260505024108 | 57 | 223 | 6.0 | 16.0 | 0.00 | 0.00 | 0.00 | 68 | 1007.3 |
| 20260505023824 | 56 | 250 | 6.0 | 17.0 | 0.00 | 0.00 | 0.00 | 69 | 1007.3 |
| 20260505023104 | 56 | 238 | 6.0 | 20.0 | 0.00 | 0.00 | 0.00 | 71 | 1007.2 |
| 20260505022831 | 55 | 254 | 7.0 | 20.0 | 0.00 | 0.00 | 0.00 | 73 | 1007.1 |
| 20260505022105 | 55 | 218 | 6.0 | 17.0 | 0.00 | 0.00 | 0.00 | 74 | 1007.1 |
| 20260505021605 | 54 | 188 | 6.0 | 17.0 | 0.00 | 0.00 | 0.00 | 74 | 1007.0 |
| 20260505021105 | 54 | 252 | 6.0 | 16.0 | 0.00 | 0.00 | 0.00 | 75 | 1006.9 |
| 20260505020829 | 54 | 191 | 6.0 | 17.0 | 0.00 | 0.00 | 0.00 | 75 | 1006.9 |
| 20260505020104 | 54 | 232 | 6.0 | 17.0 | 0.00 | 0.00 | 0.00 | 75 | 1006.9 |
| 20260505015604 | 54 | 219 | 5.0 | 17.0 | 0.00 | 0.00 | 0.00 | 76 | 1006.9 |
| 20260505015104 | 53 | 217 | 5.0 | 14.0 | 0.00 | 0.00 | 0.00 | 77 | 1006.8 |
| 20260505014604 | 53 | 217 | 5.0 | 16.0 | 0.00 | 0.00 | 0.00 | 77 | 1006.8 |
| 20260505014323 | 53 | 217 | 5.0 | 16.0 | 0.00 | 0.00 | 0.00 | 77 | 1006.8 |
| 20260505013602 | 53 | 248 | 5.0 | 15.0 | 0.00 | 0.00 | 0.00 | 77 | 1006.8 |
| 20260505013329 | 53 | 198 | 3.0 | 11.0 | 0.00 | 0.00 | 0.00 | 77 | 1006.7 |
| 20260505012824 | 53 | 209 | 3.0 | 12.0 | 0.00 | 0.00 | 0.00 | 77 | 1006.6 |
| 20260505012534 | 53 | 176 | 4.0 | 12.0 | 0.00 | 0.00 | 0.00 | 77 | 1006.5 |
| 20260505011558 | 53 | 194 | 4.0 | 12.0 | 0.00 | 0.00 | 0.00 | 77 | 1006.5 |
| 20260505011058 | 53 | 196 | 3.0 | 13.0 | 0.00 | 0.00 | 0.00 | 77 | 1006.4 |
| 20260505010554 | 53 | 196 | 2.0 | 13.0 | 0.00 | 0.00 | 0.00 | 77 | 1006.4 |
| 20260505010046 | 53 | 163 | 1.0 | 9.0 | 0.00 | 0.00 | 0.00 | 78 | 1006.3 |
| 20260505005805 | 53 | 161 | 1.0 | 7.0 | 0.00 | 0.00 | 0.00 | 77 | 1006.2 |
| 20260505005034 | 52 | 175 | 2.0 | 7.0 | 0.00 | 0.00 | 0.00 | 78 | 1006.1 |
| 20260505004528 | 52 | 194 | 3.0 | 11.0 | 0.00 | 0.00 | 0.00 | 78 | 1006.0 |
| 20260505004034 | 52 | 155 | 3.0 | 11.0 | 0.00 | 0.00 | 0.00 | 78 | 1006.0 |
| 20260505003520 | 52 | 174 | 2.0 | 7.0 | 0.00 | 0.00 | 0.00 | 78 | 1005.9 |
| 20260505003022 | 52 | 180 | 2.0 | 7.0 | 0.00 | 0.00 | 0.00 | 77 | 1005.8 |
| 20260505002746 | 52 | 176 | 2.0 | 7.0 | 0.00 | 0.00 | 0.00 | 77 | 1005.8 |
| 20260505002030 | 52 | 184 | 1.0 | 6.0 | 0.00 | 0.00 | 0.00 | 78 | 1005.7 |
| 20260505001518 | 52 | 184 | 1.0 | 5.0 | 0.00 | 0.00 | 0.00 | 78 | 1005.6 |
| 20260505001031 | 52 | 184 | 3.0 | 8.0 | 0.00 | 0.00 | 0.00 | 78 | 1005.5 |
| 20260505000519 | 52 | 197 | 4.0 | 8.0 | 0.00 | 0.00 | 0.00 | 77 | 1005.4 |
| 20260505000036 | 52 | 179 | 3.0 | 8.0 | 0.00 | 0.00 | 0.00 | 77 | 1005.4 |
| 20260504235736 | 53 | 192 | 4.0 | 8.0 | 0.00 | 0.00 | 0.00 | 76 | 1005.4 |
| 20260504235023 | 53 | 184 | 4.0 | 10.0 | 0.00 | 0.00 | 0.00 | 75 | 1005.3 |
| 20260504234518 | 53 | 161 | 3.0 | 10.0 | 0.00 | 0.00 | 0.00 | 74 | 1005.3 |
| 20260504234036 | 54 | 180 | 3.0 | 8.0 | 0.00 | 0.00 | 0.00 | 73 | 1005.1 |
| 20260504233738 | 54 | 177 | 3.0 | 8.0 | 0.00 | 0.00 | 0.00 | 72 | 1005.1 |
| 20260504233025 | 55 | 177 | 3.0 | 7.0 | 0.00 | 0.00 | 0.00 | 71 | 1005.0 |
| 20260504232518 | 55 | 166 | 3.0 | 8.0 | 0.00 | 0.00 | 0.00 | 69 | 1004.9 |
| 20260504232024 | 56 | 182 | 4.0 | 11.0 | 0.00 | 0.00 | 0.00 | 68 | 1004.8 |
| 20260504231518 | 57 | 169 | 2.0 | 11.0 | 0.00 | 0.00 | 0.00 | 65 | 1004.7 |
| 20260504231022 | 58 | 143 | 1.0 | 6.0 | 0.00 | 0.00 | 0.00 | 64 | 1004.6 |
| 20260504230517 | 58 | 161 | 1.0 | 6.0 | 0.00 | 0.00 | 0.00 | 63 | 1004.5 |
| 20260504230258 | 58 | 159 | 1.0 | 6.0 | 0.00 | 0.00 | 0.00 | 63 | 1004.5 |
| 20260504225516 | 59 | 159 | 1.0 | 5.0 | 0.00 | 0.00 | 0.00 | 61 | 1004.4 |
| 20260504225026 | 59 | 164 | 0.0 | 5.0 | 0.00 | 0.00 | 0.00 | 59 | 1004.5 |
| 20260504224516 | 60 | 163 | 1.0 | 5.0 | 0.00 | 0.00 | 0.00 | 57 | 1004.4 |
| 20260504224024 | 62 | 165 | 2.0 | 5.0 | 0.00 | 0.00 | 0.00 | 54 | 1004.3 |
| 20260504223512 | 65 | 163 | 1.0 | 6.0 | 0.00 | 0.00 | 0.00 | 49 | 1004.2 |
| 20260504223235 | 68 | 153 | 1.0 | 7.0 | 0.00 | 0.00 | 0.00 | 44 | 1004.1 |
| 20260504223002 | 71 | 174 | 3.0 | 8.0 | 0.00 | 0.00 | 0.00 | 40 | 1004.1 |
| 20260504222012 | 71 | 257 | 3.0 | 13.0 | 0.00 | 0.00 | 0.00 | 34 | 1004.0 |
| 20260504221512 | 72 | 227 | 4.0 | 19.0 | 0.00 | 0.00 | 0.00 | 33 | 1004.0 |
| 20260504221012 | 73 | 272 | 5.0 | 19.0 | 0.00 | 0.00 | 0.00 | 32 | 1004.0 |
| 20260504220512 | 73 | 239 | 4.0 | 14.0 | 0.00 | 0.00 | 0.00 | 32 | 1004.0 |
| 20260504220011 | 73 | 274 | 4.0 | 11.0 | 0.00 | 0.00 | 0.00 | 32 | 1004.0 |
| 20260504215513 | 73 | 242 | 5.0 | 14.0 | 0.00 | 0.00 | 0.00 | 33 | 1003.9 |
| 20260504215008 | 73 | 229 | 4.0 | 14.0 | 0.00 | 0.00 | 0.00 | 33 | 1004.0 |
| 20260504214508 | 73 | 256 | 3.0 | 10.0 | 0.00 | 0.00 | 0.00 | 35 | 1004.0 |
| 20260504214008 | 73 | 248 | 5.0 | 11.0 | 0.00 | 0.00 | 0.00 | 33 | 1004.0 |
| 20260504213508 | 73 | 273 | 5.0 | 13.0 | 0.00 | 0.00 | 0.00 | 33 | 1004.0 |
| 20260504213008 | 73 | 230 | 6.0 | 16.0 | 0.00 | 0.00 | 0.00 | 32 | 1004.0 |
| 20260504212508 | 73 | 260 | 5.0 | 16.0 | 0.00 | 0.00 | 0.00 | 32 | 1004.0 |
| 20260504212008 | 73 | 273 | 4.0 | 14.0 | 0.00 | 0.00 | 0.00 | 32 | 1004.0 |